Flag for Austria Weather past 2 weeks in Hallein, Salzburg, Austria

54 °F

Partly sunny.

Feels Like: 52 °F
Forecast: 43 / 63 °F
Wind: 6 mph from South

Location: Salzburg-Flughafen

Current Time: Oct 4, 2015 at 6:10:10 PM

Latest Report: Oct 4, 2015 at 5:50 PM

Visibility: N/A

Pressure: 30.09 "Hg

Humidity: 82%

Dew point: 48 °F

Location of HalleinLocation

Historic Weather in Hallein — Graph


Hallein temperature yesterday

Maximum temperature yesterday: 73 °F (at 3:50 PM)
Minimum temperature yesterday: 45 °F (at 3:50 AM)
Average temperature yesterday: 58 °F

Past Weeks' High & Low Weather Summary

High73 °F (Oct 3, 3:50 PM)100% (Sep 19, 10:50 PM)30.51 "Hg (Sep 19, 10:50 PM)
Low34 °F (Sep 29, 5:50 AM)43% (Oct 1, 1:50 PM)29.71 "Hg (Sep 22, 3:20 PM)
Average52 °F79%30.18 "Hg
* Reported Sep 19 4:20 PM — Oct 4 4:50 PM, Hallein, Weather by CustomWeather, © 2015

Note: Actual official high and low records may vary slightly from our data, if they occured in-between our weather recording intervals... More about our weather records


Hallein weather history for previous 24 hours

Time TempWeatherWind HumidityBarometerVisibility
4:50 PM
Sun, Oct 4
54 °FSprinkles. Partly sunny.5 mph77%30.09 "HgN/A
4:20 PM54 °FPartly sunny.7 mph77%30.12 "HgN/A
3:50 PM54 °FBroken clouds.10 mph77%30.12 "HgN/A
3:20 PM55 °FBroken clouds.17 mph72%30.12 "HgN/A
2:50 PM57 °FBroken clouds.15 mph63%30.09 "HgN/A
2:20 PM59 °FPartly sunny.13 mph63%30.09 "HgN/A
1:50 PM59 °FPartly sunny.15 mph68%30.07 "HgN/A
1:20 PM61 °FScattered clouds.21 mph72%30.07 "HgN/A
12:50 PM61 °FScattered clouds.17 mph72%30.07 "HgN/A
12:20 PM63 °FScattered clouds.18 mph68%30.07 "HgN/A
11:50 AM61 °FPartly sunny.13 mph72%30.07 "HgN/A
11:20 AM59 °FPartly sunny.10 mph72%30.07 "HgN/A
10:50 AM59 °FPartly sunny.13 mph68%30.07 "HgN/A
10:20 AM57 °FPartly sunny.8 mph77%30.04 "HgN/A
9:50 AM55 °FPartly sunny.5 mph82%30.04 "HgN/A
9:20 AM54 °FLight rain. Partly sunny.5 mph88%30.04 "HgN/A
8:50 AM54 °FLight rain. Partly sunny.2 mph88%30.01 "HgN/A
8:20 AM54 °FLight rain. Partly sunny.7 mph82%30.01 "HgN/A
7:50 AM55 °FLight rain. Passing clouds.6 mph72%29.98 "HgN/A
7:20 AM54 °FPassing clouds.9 mph77%29.98 "HgN/A
6:50 AM54 °FPassing clouds.10 mph77%29.98 "HgN/A
6:20 AM54 °FPassing clouds.10 mph77%29.98 "HgN/A
5:50 AM52 °FClear.9 mph82%29.98 "Hg10 mi
5:20 AM52 °FPassing clouds.12 mph82%29.98 "HgN/A
4:50 AM50 °FCool.10 mph88%29.98 "HgN/A
4:20 AM50 °FCool.7 mph88%29.98 "HgN/A
3:50 AM50 °FCool.10 mph88%29.98 "HgN/A
3:20 AM50 °FCool.8 mph88%29.98 "HgN/A
2:50 AM50 °FCool.5 mph88%29.98 "HgN/A
2:20 AM54 °FCool.7 mph82%29.98 "HgN/A
1:50 AM48 °FCool.6 mph94%29.98 "HgN/A
1:20 AM50 °FCool.3 mph94%30.01 "HgN/A
12:50 AM52 °FCool.3 mph94%30.01 "HgN/A
12:20 AM50 °FCool.2 mph100%30.01 "HgN/A
11:20 PM
Sat, Oct 3
50 °FCool.3 mph94%29.98 "HgN/A
10:50 PM52 °FPassing clouds.3 mph88%29.98 "HgN/A
10:20 PM55 °FClear.3 mph88%30.01 "Hg10 mi
9:50 PM55 °FClear.5 mph88%30.01 "Hg10 mi
9:20 PM55 °FClear.6 mph88%30.01 "Hg10 mi
8:50 PM55 °FClear.3 mph88%30.01 "Hg10 mi
8:20 PM57 °FClear.5 mph88%30.01 "Hg10 mi
7:50 PM57 °FClear.3 mph82%30.01 "Hg10 mi
7:20 PM61 °FPassing clouds.3 mph77%30.01 "HgN/A
6:50 PM63 °FPassing clouds.3 mph73%29.98 "HgN/A
6:20 PM70 °FPassing clouds.3 mph50%29.98 "HgN/A
Weather by CustomWeather, © 2015

See weather overviewHow to use our weather pages